period_start,C,m1,H,J0,J1,J2,J3,J4,J5,JA,JB,JC,JD,JJ,JK,JN,#
2013-10-22 00:00:48,0.05,0.67,0.00,22.67,24.07,26.87,5.94,30.54,1017.92,2060.00,3209.23,3180.99,3434.99,350.26,325.09,22.02,0000 0000 0000 0000 000000
2013-10-22 00:01:48,0.04,0.67,0.00,22.66,24.09,26.93,5.89,30.50,1018.00,2060.00,3209.09,3180.85,3434.88,349.67,324.43,22.03,0000 0000 0000 0000 000000
2013-10-22 00:02:48,0.08,0.67,0.00,22.66,24.09,26.88,5.86,30.54,1018.02,2060.00,3209.03,3180.55,3434.57,350.08,324.89,22.03,0000 0000 0000 0000 000000
2013-10-22 00:03:48,0.10,0.67,0.00,22.67,24.10,26.89,5.79,30.50,1018.04,2060.00,3209.01,3180.33,3434.28,348.69,323.32,22.04,0000 0000 0000 0000 000000
2013-10-22 00:04:49,0.08,0.67,0.00,22.68,24.10,26.86,6.14,30.75,1018.03,2060.00,3209.00,3180.14,3434.10,349.63,324.29,22.05,0000 0000 0000 0000 000000
2013-10-22 00:05:49,0.05,0.67,0.00,22.69,24.10,26.93,6.02,30.58,1018.00,2060.00,3208.96,3180.06,3434.04,350.08,324.82,22.05,0000 0000 0000 0000 000000
2013-10-22 00:06:49,0.02,0.67,0.00,22.71,24.10,26.85,6.26,30.54,1018.03,2060.00,3208.88,3180.02,3434.01,350.80,325.47,22.06,0000 0000 0000 0000 000000
2013-10-22 00:07:50,0.03,0.67,0.00,22.72,24.10,26.92,5.88,30.50,1017.97,2060.00,3208.52,3180.00,3434.00,349.69,324.42,22.06,0000 0000 0000 0000 000000
2013-10-22 00:08:50,0.05,0.67,0.00,22.72,24.11,26.94,5.88,30.54,1017.93,2060.00,3208.22,3180.00,3433.86,349.98,324.29,22.07,0000 0000 0000 0000 000000
2013-10-22 00:09:50,0.07,0.67,0.00,22.73,24.11,26.93,6.08,30.46,1018.00,2059.99,3208.08,3179.92,3433.48,350.88,325.53,22.08,0000 0000 0000 0000 000000
2013-10-22 00:10:50,0.08,0.67,0.00,22.73,24.12,26.93,5.90,30.38,1018.06,2059.99,3208.03,3179.57,3433.18,349.74,324.57,22.08,0000 0000 0000 0000 000000
2013-10-22 00:11:51,0.12,0.67,0.00,22.73,24.12,26.93,6.11,30.58,1018.07,2059.99,3208.00,3179.23,3433.07,350.87,325.18,22.09,0000 0000 0000 0000 000000
2013-10-22 00:12:51,0.08,0.67,0.00,22.75,24.12,26.86,5.92,30.58,1018.08,2059.97,3207.88,3179.09,3433.02,349.98,324.38,22.09,0000 0000 0000 0000 000000
2013-10-22 00:13:51,0.04,0.67,0.00,22.76,24.12,26.92,6.00,30.46,1018.07,2059.98,3207.65,3179.03,3433.00,350.27,324.97,22.10,0000 0000 0000 0000 000000
2013-10-22 00:14:51,0.05,0.68,0.00,22.76,24.12,26.95,6.08,30.54,1018.08,2059.99,3207.30,3179.01,3432.97,350.43,325.10,22.10,0000 0000 0000 0000 000000
2013-10-22 00:15:52,0.06,0.68,0.00,22.75,24.12,26.93,5.98,30.50,1018.08,2059.98,3207.11,3179.00,3432.88,350.06,324.76,22.11,0000 0000 0000 0000 000000
2013-10-22 00:16:52,0.03,0.68,0.00,22.74,24.13,26.94,5.83,30.46,1018.06,2059.99,3207.04,3178.98,3432.50,349.67,324.41,22.12,0000 0000 0000 0000 000000
2013-10-22 00:17:52,0.06,0.68,0.00,22.74,24.14,26.92,5.99,30.42,1018.08,2059.99,3207.01,3178.98,3432.23,349.79,324.81,22.12,0000 0000 0000 0000 000000
2013-10-22 00:18:52,0.04,0.68,0.00,22.74,24.14,26.97,5.92,30.46,1018.07,2059.96,3207.00,3178.93,3432.12,349.53,324.28,22.13,0000 0000 0000 0000 000000
2013-10-22 00:19:52,0.01,0.68,0.00,22.75,24.15,26.92,5.90,30.29,1018.08,2059.98,3206.96,3178.56,3432.05,350.26,325.17,22.13,0000 0000 0000 0000 000000
2013-10-22 00:20:53,0.12,0.68,0.00,22.73,24.15,26.97,5.92,30.42,1018.08,2059.98,3206.76,3178.25,3432.01,349.41,324.69,22.14,0000 0000 0000 0000 000000
2013-10-22 00:21:53,0.10,0.68,0.00,22.72,24.15,26.94,5.90,30.50,1018.08,2059.98,3206.35,3178.10,3432.00,350.19,324.91,22.15,0000 0000 0000 0000 000000
2013-10-22 00:22:53,0.08,0.68,0.00,22.73,24.15,26.92,5.96,30.46,1018.08,2059.97,3206.12,3178.04,3432.00,349.23,323.91,22.15,0000 0000 0000 0000 000000
2013-10-22 00:23:53,0.03,0.68,0.00,22.74,24.15,27.00,5.91,30.38,1018.08,2059.97,3206.05,3178.01,3431.92,349.84,324.63,22.16,0000 0000 0000 0000 000000
2013-10-22 00:24:54,0.03,0.68,0.00,22.76,24.16,27.01,5.98,30.50,1018.08,2059.99,3206.02,3178.00,3431.73,350.08,324.51,22.16,0000 0000 0000 0000 000000
2013-10-22 00:25:54,0.04,0.68,0.00,22.75,24.17,26.90,5.95,30.42,1018.08,2059.98,3206.00,3178.00,3431.38,350.52,325.18,22.17,0000 0000 0000 0000 000000
2013-10-22 00:26:54,0.04,0.68,0.00,22.74,24.17,26.98,5.84,30.33,1018.08,2059.99,3206.00,3178.00,3431.15,349.47,324.23,22.17,0000 0000 0000 0000 000000
2013-10-22 00:27:54,0.03,0.68,0.00,22.75,24.17,27.00,5.93,30.46,1018.08,2059.99,3205.96,3177.98,3431.07,349.31,324.07,22.18,0000 0000 0000 0000 000000
2013-10-22 00:28:55,0.01,0.68,0.00,22.75,24.17,26.96,5.96,30.50,1018.09,2059.97,3205.72,3177.91,3431.02,349.85,324.80,22.19,0000 0000 0000 0000 000000
2013-10-22 00:29:55,0.04,0.68,0.00,22.76,24.17,27.00,5.98,30.42,1018.08,2059.98,3205.48,3177.68,3431.00,350.14,324.82,22.19,0000 0000 0000 0000 000000
2013-10-22 00:30:55,0.12,0.68,0.00,22.77,24.17,27.02,5.93,30.50,1018.08,2059.97,3205.25,3177.33,3430.99,349.98,324.67,22.20,0000 0000 0000 0000 000000
2013-10-22 00:31:55,0.09,0.68,0.00,22.77,24.18,26.96,5.98,30.54,1018.08,2059.97,3205.09,3177.14,3430.73,349.84,324.78,22.20,0000 0000 0000 0000 000000
2013-10-22 00:32:56,0.10,0.68,0.00,22.77,24.19,26.98,6.01,30.46,1018.09,2059.93,3205.03,3177.05,3430.30,350.07,324.79,22.21,0000 0000 0000 0000 000000
2013-10-22 00:33:56,0.02,0.68,0.00,22.78,24.20,27.00,5.84,30.42,1018.08,2059.93,3205.01,3177.01,3430.12,350.41,325.09,22.22,0000 0000 0000 0000 000000
2013-10-22 00:34:56,0.04,0.68,0.00,22.78,24.20,27.03,5.92,30.13,1018.08,2059.91,3205.00,3177.00,3430.04,349.19,323.82,22.22,0000 0000 0000 0000 000000
2013-10-22 00:35:56,-0.02,0.68,0.00,22.79,24.20,27.00,6.05,30.46,1018.08,2059.84,3204.88,3177.00,3430.01,349.89,324.57,22.23,0000 0000 0000 0000 000000
2013-10-22 00:36:57,-0.03,0.68,0.00,22.78,24.20,27.00,6.17,30.50,1018.08,2059.84,3204.46,3176.96,3429.99,350.78,324.86,22.23,0000 0000 0000 0000 000000
2013-10-22 00:37:57,0.10,0.68,0.00,22.75,24.20,27.02,5.92,30.29,1018.08,2059.86,3204.23,3176.92,3429.95,349.67,324.39,22.24,0000 0000 0000 0000 000000
2013-10-22 00:38:57,0.06,0.68,0.00,22.76,24.21,27.03,6.03,30.50,1018.08,2059.86,3204.11,3176.70,3429.94,349.86,324.18,22.25,0000 0000 0000 0000 000000
2013-10-22 00:39:57,0.06,0.68,0.00,22.77,24.22,26.98,5.85,30.46,1018.08,2059.84,3204.04,3176.36,3429.57,348.97,323.90,22.25,0000 0000 0000 0000 000000
2013-10-22 00:40:57,0.13,0.68,0.00,22.81,24.22,26.99,5.89,30.54,1018.04,2059.86,3204.01,3176.15,3429.23,349.63,324.26,22.26,0000 0000 0000 0000 000000
2013-10-22 00:41:57,0.10,0.68,0.00,22.80,24.22,27.02,6.17,30.63,1018.05,2059.90,3204.00,3176.05,3429.08,350.33,324.71,22.26,0000 0000 0000 0000 000000
2013-10-22 00:42:58,0.08,0.68,0.00,22.81,24.22,27.05,6.08,30.67,1018.07,2059.82,3203.97,3176.02,3429.03,350.99,325.15,22.27,0000 0000 0000 0000 000000
2013-10-22 00:43:58,-0.08,0.68,0.00,22.81,24.22,27.05,5.77,30.46,1017.98,2059.69,3203.75,3176.00,3429.01,350.28,324.87,22.27,0000 0000 0000 0000 000000
2013-10-22 00:44:58,-0.04,0.68,0.00,22.80,24.22,27.02,5.84,30.38,1017.99,2059.47,3203.32,3175.99,3428.96,349.38,324.20,22.28,0000 0000 0000 0000 000000
2013-10-22 00:45:58,-0.14,0.68,0.00,22.78,24.23,27.07,5.83,30.29,1018.06,2059.39,3203.12,3175.90,3428.78,350.29,324.93,22.29,0000 0000 0000 0000 000000
2013-10-22 00:46:58,0.01,0.68,0.00,22.79,24.24,27.05,5.95,30.13,1017.99,2059.47,3203.04,3175.74,3428.44,350.52,324.62,22.29,0000 0000 0000 0000 000000
2013-10-22 00:47:58,0.22,0.68,0.00,22.78,24.24,27.08,5.96,30.54,1017.88,2059.45,3203.01,3175.55,3428.22,350.29,324.79,22.30,0000 0000 0000 0000 000000
2013-10-22 00:48:59,0.04,0.68,0.00,22.78,24.25,27.01,5.92,30.54,1017.98,2059.38,3203.00,3175.25,3428.08,350.77,325.16,22.30,0000 0000 0000 0000 000000
2013-10-22 00:49:59,0.02,0.69,0.00,22.78,24.25,27.03,5.98,30.50,1018.07,2059.36,3202.99,3175.11,3428.03,349.69,324.38,22.31,0000 0000 0000 0000 000000
2013-10-22 00:50:59,0.05,0.69,0.00,22.79,24.25,27.04,6.03,30.54,1018.00,2059.21,3202.92,3175.05,3428.01,350.58,325.18,22.32,0000 0000 0000 0000 000000
2013-10-22 00:52:00,-0.14,0.68,0.00,22.81,24.25,26.99,5.93,30.46,1017.90,2059.13,3202.68,3175.01,3427.98,350.14,324.71,22.32,0000 0000 0000 0000 000000
2013-10-22 00:53:00,-0.01,0.68,0.00,22.82,24.25,27.10,5.88,30.50,1018.02,2059.18,3202.33,3174.99,3427.96,350.41,324.99,22.33,0000 0000 0000 0000 000000
2013-10-22 00:54:00,0.11,0.69,0.00,22.84,24.26,27.08,6.09,30.50,1018.02,2059.22,3202.14,3174.98,3427.78,350.70,325.25,22.33,0000 0000 0000 0000 000000
2013-10-22 00:55:00,0.10,0.69,0.00,22.83,24.27,27.04,6.10,30.58,1018.02,2059.16,3202.05,3174.97,3427.36,350.30,324.87,22.34,0000 0000 0000 0000 000000
2013-10-22 00:56:00,0.00,0.69,0.00,22.85,24.27,27.10,6.08,30.79,1017.90,2059.08,3202.02,3174.81,3427.15,350.19,324.70,22.34,0000 0000 0000 0000 000000
2013-10-22 00:57:01,0.01,0.69,0.00,22.86,24.27,27.07,6.17,30.83,1017.69,2059.08,3202.00,3174.59,3427.05,350.92,324.83,22.35,0000 0000 0000 0000 000000
2013-10-22 00:58:01,0.06,0.69,0.00,22.87,24.27,27.01,5.90,30.71,1017.68,2059.06,3202.00,3174.29,3427.02,349.98,324.43,22.36,0000 0000 0000 0000 000000
2013-10-22 00:59:01,0.06,0.69,0.00,22.86,24.27,27.08,5.90,30.67,1017.63,2059.04,3201.93,3174.11,3427.00,349.69,323.84,22.36,0000 0000 0000 0000 000000
2013-10-22 01:00:01,0.02,0.69,0.00,22.83,24.27,27.07,5.97,30.58,1017.62,2059.02,3201.62,3174.04,3426.94,350.32,324.77,22.37,0000 0000 0000 0000 000000
2013-10-22 01:01:02,0.05,0.69,0.00,22.81,24.28,27.10,5.99,30.63,1017.60,2059.02,3201.32,3174.01,3426.82,350.30,324.76,22.37,0000 0000 0000 0000 000000
2013-10-22 01:02:02,0.06,0.69,0.00,22.82,24.29,27.10,5.94,30.33,1017.61,2059.02,3201.14,3174.00,3426.53,349.25,324.04,22.38,0000 0000 0000 0000 000000
2013-10-22 01:03:02,0.06,0.69,0.00,22.82,24.29,27.07,5.94,30.63,1017.60,2059.02,3201.07,3174.00,3426.30,350.25,324.71,22.39,0000 0000 0000 0000 000000
2013-10-22 01:04:02,0.04,0.69,0.00,22.80,24.30,27.06,6.02,30.63,1017.60,2059.03,3201.03,3173.99,3426.11,350.23,324.72,22.39,0000 0000 0000 0000 000000
2013-10-22 01:05:02,0.03,0.69,0.00,22.82,24.30,27.06,5.97,30.58,1017.59,2059.02,3200.99,3173.95,3426.04,349.82,324.53,22.40,0000 0000 0000 0000 000000
2013-10-22 01:06:03,0.01,0.69,0.00,22.80,24.30,27.10,5.85,30.67,1017.61,2059.04,3200.99,3173.90,3426.01,348.95,324.15,22.40,0000 0000 0000 0000 000000
2013-10-22 01:07:03,0.04,0.69,0.00,22.82,24.30,27.04,5.65,30.63,1017.61,2059.02,3200.97,3173.70,3426.00,349.40,323.72,22.41,0000 0000 0000 0000 000000
2013-10-22 01:08:03,0.00,0.69,0.00,22.85,24.30,27.02,6.10,30.63,1017.59,2059.01,3200.82,3173.37,3426.00,349.98,324.63,22.41,0000 0000 0000 0000 000000
2013-10-22 01:09:03,0.10,0.69,0.00,22.87,24.30,27.12,5.92,30.75,1017.60,2059.01,3200.38,3173.14,3425.90,350.21,324.53,22.42,0000 0000 0000 0000 000000
2013-10-22 01:10:04,0.13,0.69,0.00,22.87,24.31,27.15,5.78,30.50,1017.59,2059.01,3200.15,3173.06,3425.66,349.66,323.83,22.43,0000 0000 0000 0000 000000
2013-10-22 01:11:04,0.07,0.69,0.00,22.87,24.32,27.03,6.10,30.67,1017.59,2059.01,3200.07,3173.02,3425.33,348.69,323.63,22.43,0000 0000 0000 0000 000000
2013-10-22 01:12:04,0.05,0.69,0.00,22.89,24.32,27.11,6.08,30.63,1017.59,2059.00,3200.02,3173.00,3425.12,351.35,325.65,22.44,0000 0000 0000 0000 000000
2013-10-22 01:13:04,0.03,0.69,0.00,22.89,24.32,27.13,5.98,30.67,1017.59,2059.00,3200.00,3173.00,3425.04,349.58,324.00,22.44,0000 0000 0000 0000 000000
2013-10-22 01:14:05,0.01,0.69,0.00,22.92,24.32,27.11,5.88,30.63,1017.59,2059.00,3199.99,3172.99,3425.01,350.38,324.72,22.45,0000 0000 0000 0000 000000
2013-10-22 01:15:05,0.01,0.69,0.00,22.93,24.32,27.16,5.76,30.75,1017.59,2059.00,3199.83,3172.86,3424.98,350.08,324.67,22.46,0000 0000 0000 0000 000000
2013-10-22 01:16:05,0.06,0.69,0.00,22.94,24.32,27.17,5.98,30.71,1017.59,2059.00,3199.41,3172.49,3424.92,350.35,324.67,22.46,0000 0000 0000 0000 000000
2013-10-22 01:17:05,0.16,0.69,0.00,22.94,24.32,27.12,5.92,30.63,1017.59,2059.00,3199.18,3172.21,3424.56,350.44,324.84,22.47,0000 0000 0000 0000 000000
2013-10-22 01:18:06,0.14,0.69,0.00,22.94,24.33,27.11,6.02,30.88,1017.58,2059.00,3199.07,3172.10,3424.25,350.54,324.85,22.47,0000 0000 0000 0000 000000
2013-10-22 01:19:06,0.06,0.69,0.00,22.96,24.34,27.12,5.96,30.67,1017.58,2059.00,3199.03,3172.05,3424.12,348.86,323.26,22.48,0000 0000 0000 0000 000000
2013-10-22 01:20:06,0.03,0.69,0.00,22.96,24.34,27.17,6.10,30.71,1017.59,2059.00,3199.01,3172.01,3424.04,350.25,324.95,22.48,0000 0000 0000 0000 000000
2013-10-22 01:21:06,0.01,0.69,0.00,22.95,24.35,27.19,6.12,30.58,1017.59,2059.00,3199.00,3172.00,3424.01,350.86,324.84,22.49,0000 0000 0000 0000 000000
2013-10-22 01:22:06,0.00,0.69,0.00,22.96,24.35,27.15,5.99,30.58,1017.59,2059.00,3199.00,3171.99,3424.00,349.91,324.59,22.50,0000 0000 0000 0000 000000
2013-10-22 01:23:06,0.00,0.69,0.00,22.96,24.35,27.15,5.79,30.42,1017.59,2059.00,3198.98,3171.98,3424.00,349.35,323.72,22.50,0000 0000 0000 0000 000000
2013-10-22 01:24:07,0.00,0.69,0.00,22.97,24.35,27.10,6.05,30.75,1017.57,2059.00,3198.85,3171.96,3423.96,349.88,324.35,22.51,0000 0000 0000 0000 000000
2013-10-22 01:25:07,0.04,0.69,0.00,22.97,24.35,27.16,6.08,30.75,1017.59,2059.00,3198.46,3171.72,3423.78,350.94,325.18,22.51,0000 0000 0000 0000 000000
2013-10-22 01:26:07,0.15,0.70,0.00,22.96,24.35,27.16,6.17,30.79,1017.59,2059.00,3198.18,3171.37,3423.35,351.07,325.63,22.52,0000 0000 0000 0000 000000
2013-10-22 01:27:07,0.16,0.70,0.00,22.94,24.36,27.16,5.86,30.46,1017.56,2059.00,3198.07,3171.15,3423.14,349.66,323.67,22.53,0000 0000 0000 0000 000000
2013-10-22 01:28:08,0.08,0.70,0.00,22.93,24.37,27.15,5.66,30.54,1017.52,2059.00,3198.01,3171.06,3423.05,349.27,324.16,22.53,0000 0000 0000 0000 000000
2013-10-22 01:29:08,0.02,0.70,0.00,22.93,24.37,27.16,6.02,30.58,1017.42,2058.99,3197.99,3171.02,3423.02,350.28,324.40,22.54,0000 0000 0000 0000 000000
2013-10-22 01:30:08,0.00,0.70,0.00,22.91,24.37,27.10,6.03,30.58,1017.48,2058.99,3197.96,3171.00,3422.95,350.12,324.02,22.54,0000 0000 0000 0000 000000
2013-10-22 01:31:08,0.02,0.70,0.00,22.91,24.37,27.16,6.13,30.67,1017.55,2058.99,3197.83,3170.99,3422.89,350.67,324.99,22.55,0000 0000 0000 0000 000000
2013-10-22 01:32:09,0.03,0.70,0.00,22.93,24.37,27.21,6.03,30.67,1017.53,2058.99,3197.49,3170.96,3422.59,350.01,324.20,22.56,0000 0000 0000 0000 000000
2013-10-22 01:33:09,0.10,0.70,0.00,22.91,24.37,27.19,6.04,30.63,1017.50,2058.99,3197.21,3170.80,3422.25,350.24,324.56,22.56,0000 0000 0000 0000 000000
2013-10-22 01:34:09,0.11,0.70,0.00,22.92,24.38,27.20,6.08,30.58,1017.48,2058.98,3197.08,3170.53,3422.11,350.89,325.15,22.57,0000 0000 0000 0000 000000
2013-10-22 01:35:09,0.09,0.70,0.00,22.94,24.38,27.20,6.02,30.63,1017.51,2058.95,3197.03,3170.24,3422.04,350.47,324.76,22.57,0000 0000 0000 0000 000000
2013-10-22 01:36:09,0.06,0.70,0.00,22.94,24.39,27.22,5.78,30.58,1017.41,2058.96,3197.00,3170.08,3422.01,349.70,324.01,22.58,0000 0000 0000 0000 000000
2013-10-22 01:37:10,0.04,0.70,0.00,22.93,24.39,27.23,6.15,30.67,1017.29,2058.97,3196.99,3170.03,3422.00,350.87,325.30,22.58,0000 0000 0000 0000 000000
2013-10-22 01:38:10,0.02,0.70,0.00,22.96,24.40,27.23,5.75,30.38,1017.22,2058.98,3196.98,3170.01,3421.98,349.36,323.74,22.59,0000 0000 0000 0000 000000
2013-10-22 01:39:10,0.00,0.70,0.00,22.98,24.40,27.16,5.81,30.50,1017.21,2058.96,3196.91,3170.00,3421.94,349.63,323.84,22.60,0000 0000 0000 0000 000000
2013-10-22 01:40:10,0.01,0.70,0.00,22.99,24.40,27.23,6.10,30.71,1017.23,2058.96,3196.70,3170.00,3421.80,351.07,325.17,22.60,0000 0000 0000 0000 000000
2013-10-22 01:41:10,0.06,0.70,0.00,23.00,24.40,27.23,5.75,30.58,1017.23,2058.98,3196.34,3169.98,3421.41,349.43,323.64,22.61,0000 0000 0000 0000 000000
2013-10-22 01:42:11,0.12,0.70,0.00,23.01,24.40,27.17,6.02,30.63,1017.15,2058.98,3196.13,3169.94,3421.16,350.41,324.61,22.61,0000 0000 0000 0000 000000
2013-10-22 01:43:11,0.07,0.70,0.00,23.02,24.40,27.24,6.14,30.79,1017.14,2058.98,3196.05,3169.64,3421.05,350.82,324.88,22.62,0000 0000 0000 0000 000000
2013-10-22 01:44:11,0.09,0.70,0.00,23.04,24.41,27.20,5.96,30.50,1017.35,2058.95,3196.01,3169.29,3421.01,350.13,323.84,22.63,0000 0000 0000 0000 000000
2013-10-22 01:45:12,0.05,0.70,0.00,23.03,24.42,27.22,6.07,30.63,1017.31,2058.92,3195.96,3169.12,3420.97,350.61,324.76,22.63,0000 0000 0000 0000 000000
2013-10-22 01:46:12,0.02,0.70,0.00,23.03,24.42,27.18,5.88,30.67,1017.24,2058.96,3195.75,3169.05,3420.95,349.66,323.98,22.64,0000 0000 0000 0000 000000
2013-10-22 01:47:12,0.08,0.70,0.00,23.02,24.42,27.21,5.87,30.58,1017.28,2058.96,3195.54,3169.03,3420.75,349.90,324.06,22.64,0000 0000 0000 0000 000000
2013-10-22 01:48:12,0.06,0.70,0.00,23.01,24.42,27.23,6.06,30.71,1017.24,2058.96,3195.27,3169.00,3420.41,349.69,323.86,22.65,0000 0000 0000 0000 000000
2013-10-22 01:49:13,0.07,0.70,0.00,23.01,24.42,27.26,5.83,30.50,1017.24,2058.94,3195.12,3169.00,3420.16,349.84,324.01,22.65,0000 0000 0000 0000 000000
2013-10-22 01:50:13,0.02,0.70,0.00,23.01,24.42,27.22,6.13,30.63,1017.24,2058.91,3195.04,3169.00,3420.07,350.37,324.49,22.66,0000 0000 0000 0000 000000
2013-10-22 01:51:13,-0.01,0.70,0.00,23.01,24.42,27.18,5.83,30.46,1017.26,2058.93,3195.01,3168.97,3420.02,350.15,324.06,22.67,0000 0000 0000 0000 000000
2013-10-22 01:52:13,0.05,0.70,0.00,23.00,24.43,27.24,5.94,30.46,1017.21,2058.94,3195.00,3168.74,3419.99,349.62,323.72,22.67,0000 0000 0000 0000 000000
2013-10-22 01:53:14,0.06,0.70,0.00,22.98,24.44,27.24,5.88,30.58,1017.26,2058.93,3194.97,3168.45,3419.98,348.90,323.67,22.68,0000 0000 0000 0000 000000
2013-10-22 01:54:14,0.05,0.70,0.00,23.00,24.44,27.28,5.92,30.58,1017.20,2058.90,3194.91,3168.21,3419.90,350.12,324.26,22.68,0000 0000 0000 0000 000000
2013-10-22 01:55:14,0.07,0.71,0.00,23.00,24.45,27.27,5.98,30.46,1017.17,2058.92,3194.49,3168.08,3419.54,350.68,324.77,22.69,0000 0000 0000 0000 000000
2013-10-22 01:56:14,0.13,0.71,0.00,23.01,24.45,27.28,6.03,30.50,1017.19,2058.88,3194.17,3168.03,3419.23,350.03,324.17,22.70,0000 0000 0000 0000 000000
2013-10-22 01:57:15,0.03,0.71,0.00,23.03,24.45,27.26,5.89,30.50,1017.18,2058.86,3194.06,3168.00,3419.08,349.48,323.63,22.70,0000 0000 0000 0000 000000
2013-10-22 01:58:15,0.02,0.71,0.00,23.06,24.45,27.30,5.93,30.54,1017.15,2058.87,3194.02,3168.00,3419.03,349.70,323.79,22.71,0000 0000 0000 0000 000000
2013-10-22 01:59:15,0.01,0.71,0.00,23.09,24.45,27.25,5.88,30.54,1017.17,2058.75,3193.99,3167.91,3418.96,350.14,324.18,22.71,0000 0000 0000 0000 000000
2013-10-22 02:00:15,-0.02,0.71,0.00,23.09,24.46,27.23,6.03,30.63,1017.15,2058.70,3193.73,3167.60,3418.63,350.39,324.78,22.72,0000 0000 0000 0000 000000
2013-10-22 02:01:16,0.11,0.71,0.00,23.07,24.47,27.28,5.91,30.50,1017.14,2058.74,3193.37,3167.31,3418.33,350.68,324.45,22.73,0000 0000 0000 0000 000000
2013-10-22 02:02:16,0.16,0.71,0.00,23.04,24.47,27.26,6.01,30.38,1017.15,2058.63,3193.17,3167.13,3418.12,349.79,324.18,22.73,0000 0000 0000 0000 000000
2013-10-22 02:03:16,-0.01,0.71,0.00,23.06,24.47,27.31,5.91,30.50,1017.15,2058.47,3193.07,3167.05,3418.04,349.61,324.18,22.74,0000 0000 0000 0000 000000
2013-10-22 02:04:17,-0.06,0.71,0.00,23.04,24.47,27.31,5.89,30.58,1017.19,2058.34,3193.02,3167.02,3418.01,350.49,324.31,22.74,0000 0000 0000 0000 000000
2013-10-22 02:05:17,-0.09,0.71,0.00,23.04,24.47,27.25,5.98,30.13,1017.18,2058.28,3193.00,3166.99,3417.97,350.62,324.68,22.75,0000 0000 0000 0000 000000
2013-10-22 02:06:17,-0.02,0.71,0.00,23.04,24.47,27.28,5.95,29.92,1017.18,2058.19,3192.98,3166.96,3417.68,349.74,323.90,22.75,0000 0000 0000 0000 000000
2013-10-22 02:07:17,-0.03,0.71,0.00,23.03,24.48,27.29,5.85,29.92,1017.17,2058.17,3192.81,3166.84,3417.36,349.08,323.36,22.76,0000 0000 0000 0000 000000
2013-10-22 02:08:17,0.09,0.71,0.00,23.03,24.49,27.27,6.05,30.54,1017.14,2058.19,3192.41,3166.44,3417.14,349.84,324.06,22.77,0000 0000 0000 0000 000000
2013-10-22 02:09:18,0.17,0.71,0.00,23.05,24.49,27.30,5.80,30.29,1017.12,2058.15,3192.16,3166.18,3417.05,349.74,323.89,22.77,0000 0000 0000 0000 000000
2013-10-22 02:10:18,0.07,0.71,0.00,23.05,24.49,27.30,5.93,30.63,1017.11,2058.10,3192.06,3166.07,3417.01,349.99,324.06,22.78,0000 0000 0000 0000 000000
2013-10-22 02:11:18,0.00,0.71,0.00,23.07,24.50,27.34,5.86,30.46,1017.12,2058.08,3192.02,3166.02,3417.00,349.35,323.45,22.78,0000 0000 0000 0000 000000
2013-10-22 02:12:19,0.02,0.71,0.00,23.07,24.50,27.29,5.80,30.42,1017.11,2058.11,3192.00,3166.00,3416.97,349.77,324.27,22.79,0000 0000 0000 0000 000000
2013-10-22 02:13:19,0.02,0.71,0.00,23.07,24.50,27.33,6.02,30.54,1017.11,2058.09,3191.98,3166.00,3416.74,349.93,323.98,22.80,0000 0000 0000 0000 000000
2013-10-22 02:14:19,0.01,0.71,0.00,23.09,24.50,27.31,6.01,30.46,1017.11,2058.10,3191.97,3165.97,3416.35,350.53,324.47,22.80,0000 0000 0000 0000 000000
2013-10-22 02:15:20,0.05,0.71,0.00,23.10,24.50,27.22,5.93,30.42,1017.11,2058.10,3191.80,3165.94,3416.15,350.09,323.68,22.81,0000 0000 0000 0000 000000
2013-10-22 02:16:20,0.07,0.71,0.00,23.10,24.51,27.32,5.79,30.38,1017.11,2058.07,3191.42,3165.73,3416.05,350.47,324.53,22.81,0000 0000 0000 0000 000000
2013-10-22 02:17:20,0.08,0.71,0.00,23.09,24.52,27.26,5.92,30.46,1017.11,2058.07,3191.16,3165.33,3416.02,349.80,324.20,22.82,0000 0000 0000 0000 000000
2013-10-22 02:18:20,0.13,0.71,0.00,23.07,24.52,27.23,6.05,30.71,1017.10,2058.07,3191.06,3165.13,3415.99,350.49,324.42,22.82,0000 0000 0000 0000 000000
2013-10-22 02:19:21,0.06,0.71,0.00,23.07,24.52,27.31,5.88,30.63,1017.09,2058.08,3191.01,3165.04,3415.95,350.06,324.15,22.83,0000 0000 0000 0000 000000
2013-10-22 02:20:21,0.02,0.71,0.00,23.07,24.52,27.35,6.00,30.63,1017.10,2058.05,3190.97,3165.01,3415.73,350.57,324.58,22.84,0000 0000 0000 0000 000000
2013-10-22 02:21:21,0.02,0.71,0.00,23.06,24.52,27.36,6.10,30.63,1017.10,2058.03,3190.88,3165.00,3415.38,350.40,324.42,22.84,0000 0000 0000 0000 000000
2013-10-22 02:22:21,0.05,0.71,0.00,23.06,24.52,27.31,5.86,30.42,1017.09,2058.06,3190.70,3165.00,3415.16,349.73,323.28,22.85,0000 0000 0000 0000 000000
2013-10-22 02:23:22,0.07,0.71,0.00,23.09,24.52,27.31,5.87,30.50,1017.09,2058.03,3190.38,3164.98,3415.05,350.09,323.65,22.85,0000 0000 0000 0000 000000
2013-10-22 02:24:22,0.03,0.71,0.00,23.11,24.53,27.34,5.98,30.46,1017.09,2058.02,3190.14,3164.81,3415.02,350.40,324.36,22.86,0000 0000 0000 0000 000000
2013-10-22 02:25:22,0.07,0.71,0.00,23.11,24.54,27.25,6.03,30.63,1017.10,2058.00,3190.05,3164.47,3414.98,349.99,323.83,22.87,0000 0000 0000 0000 000000
2013-10-22 02:26:22,0.09,0.71,0.00,23.11,24.54,27.35,5.98,30.63,1017.10,2058.01,3190.02,3164.22,3414.90,350.16,324.24,22.87,0000 0000 0000 0000 000000
2013-10-22 02:27:23,0.07,0.71,0.00,23.11,24.55,27.34,5.99,30.25,1017.08,2058.01,3189.99,3164.09,3414.66,350.32,324.65,22.88,0000 0000 0000 0000 000000
2013-10-22 02:28:23,0.05,0.71,0.00,23.13,24.55,27.40,6.01,30.67,1017.08,2058.00,3189.94,3164.05,3414.36,349.90,323.88,22.88,0000 0000 0000 0000 000000
2013-10-22 02:29:23,0.07,0.72,0.00,23.13,24.55,27.35,5.98,30.63,1017.07,2058.02,3189.58,3164.01,3414.16,349.22,323.24,22.89,0000 0000 0000 0000 000000
2013-10-22 02:30:23,0.07,0.72,0.00,23.14,24.55,27.32,5.96,30.54,1017.09,2058.01,3189.26,3163.99,3414.05,349.59,323.58,22.90,0000 0000 0000 0000 000000
2013-10-22 02:31:24,0.04,0.72,0.00,23.14,24.55,27.39,5.87,30.67,1017.10,2058.00,3189.10,3163.98,3414.02,349.95,323.92,22.90,0000 0000 0000 0000 000000
2013-10-22 02:32:24,0.04,0.72,0.00,23.14,24.56,27.34,5.95,30.75,1017.09,2058.00,3189.03,3163.73,3413.92,350.21,324.16,22.91,0000 0000 0000 0000 000000
2013-10-22 02:33:24,0.09,0.72,0.00,23.09,24.56,27.33,5.89,30.54,1017.10,2058.00,3189.01,3163.35,3413.69,349.61,323.66,22.91,0000 0000 0000 0000 000000
2013-10-22 02:34:25,0.11,0.72,0.00,23.11,24.57,27.38,5.99,30.75,1017.10,2058.00,3188.98,3163.16,3413.36,349.88,323.98,22.92,0000 0000 0000 0000 000000
2013-10-22 02:35:25,0.09,0.72,0.00,23.11,24.57,27.41,5.88,30.71,1017.09,2058.00,3188.80,3163.07,3413.13,348.85,322.93,22.92,0000 0000 0000 0000 000000
2013-10-22 02:36:25,0.08,0.72,0.00,23.11,24.57,27.36,5.85,30.50,1017.09,2058.00,3188.35,3163.02,3413.04,349.46,323.50,22.93,0000 0000 0000 0000 000000